LiveATC.Net - Listen to live air traffic control over the Internet!


ICAO: PABE  IATA: BET   Airport: Bethel Airport
City: Bethel   State/Province: Alaska
Country: United States   Continent: North America
PABE METAR Weather: PABE 161753Z 02008KT 10SM CLR 05/03 A2949 RMK AO2 SLP988 T00500033 10050 20017 53004
PABE Flight Activity (FlightAware)
PABE Airport Info   (iFlightPlanner)
PABE VFR Sectional Chart   (iFlightPlanner) 
PABE IFR Low Chart   (iFlightPlanner) 

ZAN Anchorage Center (Bethel)
Feed Status: UP   Listeners: 4
Listen in your browser - HTML5 player (in browser, HTML5)
Click here to listen with your own player (launches your MP3 player)
Archive Access: ZAN Anchorage Center (Bethel)
FacilityFrequency
Anchorage Center (High)127.500
Anchorage Center (Low)125.200

ICAO: PADQ  IATA: ADQ   Airport: Kodiak Airport
City: Kodiak   State/Province: Alaska
Country: United States   Continent: North America
PADQ METAR Weather: PADQ 161653Z 03006KT 1SM -RA BR SCT003 OVC008 11/10 A2916
PADQ Flight Activity (FlightAware)
PADQ Webcam:  (Airport Webcams) 
PADQ Airport Info   (iFlightPlanner)
PADQ VFR Sectional Chart   (iFlightPlanner) 
PADQ IFR Low Chart   (iFlightPlanner) 

PADQ Gnd/Twr/ZAN
Feed Status: UP   Listeners: 7
Listen in your browser - HTML5 player (in browser, HTML5)
Click here to listen with your own player (launches your MP3 player)
Archive Access: PADQ Gnd/Twr/ZAN
FacilityFrequency
Anchorage Center (Kodiak RCAG, Low Sector)125.100
Kodiak Ground121.900
Kodiak Tower119.800
NOTE: Anchorage Center simulcasts on all transmitters across Alaska - so most of the time you are not likely to hear aircraft on those frequencies, unless they are inbound to or outbound to Kodiak.

ICAO: PAFA  IATA: FAI   Airport: Fairbanks International Airport
City: Fairbanks   State/Province: Alaska
Country: United States   Continent: North America
PAFA METAR Weather: PAFA 161753Z 09004KT 10SM SCT110 BKN140 BKN200 04/01 A2952 RMK AO2 SLP002 T00440006 10050 20011 56009 $
PAFA Flight Activity (FlightAware)
PAFA Webcam:  
PAFA Airport Info   (iFlightPlanner)
PAFA VFR Sectional Chart   (iFlightPlanner) 
PAFA IFR Low Chart   (iFlightPlanner) 

Anchorage Center (PAFA Area)
Feed Status: UP   Listeners: 2
Listen in your browser - HTML5 player (in browser, HTML5)
Click here to listen with your own player (launches your MP3 player)
Archive Access: Anchorage Center (PAFA Area)
FacilityFrequency
Anchorage Center120.900
Anchorage Center135.300
Anchorage Center135.600

ICAO: PAHO  IATA: HOM   Airport: Homer Airport
City: Homer   State/Province: Alaska
Country: United States   Continent: North America
PAHO METAR Weather: PAHO 161753Z 02011G16KT 10SM BKN060 11/04 A2931 RMK AO2 SLP926 T01110044 10111 20100 55004
PAHO Flight Activity (FlightAware)
PAHO Webcam:  
PAHO Airport Info   (iFlightPlanner)
PAHO VFR Sectional Chart   (iFlightPlanner) 
PAHO IFR Low Chart   (iFlightPlanner) 

ZAN Anchorage Ctr (Homer/High)
Feed Status: UP   Listeners: 3
Listen in your browser - HTML5 player (in browser, HTML5)
Click here to listen with your own player (launches your MP3 player)
Archive Access: ZAN Anchorage Ctr (Homer/High)
FacilityFrequency
Anchorage Center (Homer, High)133.800
Anchorage Center (Sector 63/69)125.950
Anchorage Center (Sector 63/69)127.500
Anchorage Center (Sector 63/69)127.600
Anchorage Center (Sector 63/69)133.050
Anchorage Center (Sector 63/69)133.800
Anchorage Center (Sector 63/69)134.550
Anchorage Center (Sector 68)120.550
Anchorage Center (Sector 68)124.050
Anchorage Center (Sector 68)127.300
Feed sponsored by:
Angle of Attack and LiveATC.net


ZAN Anchorage Ctr (Homer/Low)
Feed Status: UP   Listeners: 2
Listen in your browser - HTML5 player (in browser, HTML5)
Click here to listen with your own player (launches your MP3 player)
Archive Access: ZAN Anchorage Ctr (Homer/Low)
FacilityFrequency
Anchorage Center (Homer, Low)125.900
Feed sponsored by:
Angle of Attack and LiveATC.net


ICAO: PANC  IATA: ANC   Airport: Ted Stevens Anchorage International Airport
City: Anchorage   State/Province: Alaska
Country: United States   Continent: North America
PANC METAR Weather: PANC 161753Z VRB06KT 10SM -RA FEW009 BKN060 OVC080 07/04 A2947 RMK AO2 RAB13 SLP980 P0000 60000 T00670044 10072 20067 56006
PANC Flight Activity (FlightAware)
PANC Webcam:  (Airport Webcams) 
PANC Airport Info   (iFlightPlanner)
PANC VFR Sectional Chart   (iFlightPlanner) 
PANC IFR Low Chart   (iFlightPlanner) 

ZAN Anchorage Center (Misc)
Feed Status: UP   Listeners: 6
Listen in your browser - HTML5 player (in browser, HTML5)
Click here to listen with your own player (launches your MP3 player)
Archive Access: ZAN Anchorage Center (Misc)
FacilityFrequency
Anchorage Center132.300
Anchorage Center (Big Lake RCAG High/Low)133.700
Anchorage Center (Johnstone Point RCAG High/Low)119.300
Anchorage Center (Kenai RCAG High/Low)119.700
Anchorage Center (Kenai RCAG High/Low)123.900
Anchorage Center (Kenai RCAG High/Low)125.700
Anchorage Center (Middleton Island RCAG Low)133.600
Anchorage Center (Sparrevohn RCAG High)134.300
Anchorage Center (Talkeetna RCAG High/Low)125.550
Feed sponsored by: SkyTrek Alaska Flight Training

ICAO: PASC  IATA: SCC   Airport: Deadhorse Airport
City: Deadhorse   State/Province: Alaska
Country: United States   Continent: North America
PASC METAR Weather: PASC 161753Z 07010KT 7SM -RA SCT003 SCT013 OVC031 03/02 A2963 RMK AO2 SLP035 CIG LWR NW-NE P0003 60032 T00280017 10028 20017 56006
PASC Flight Activity (FlightAware)
PASC Webcam:  
PASC Airport Info   (iFlightPlanner)
PASC VFR Sectional Chart   (iFlightPlanner) 
PASC IFR Low Chart   (iFlightPlanner) 

PASC CTAF/Unicom/AFIS/App
Feed Status: UP   Listeners: 2
Listen in your browser - HTML5 player (in browser, HTML5)
Click here to listen with your own player (launches your MP3 player)
Archive Access: PASC CTAF/Unicom/AFIS/App
FacilityFrequency
Deadhorse AFIS118.400
Deadhorse CTAF123.600
Deadhorse UNICOM123.000

NOTICE

Unauthorized use prohibited. See LiveATC.net Terms of Service


Airport/ARTCC Code
Frequency Search
(e.g., 124.400, 128.75)
Site-wide search
 


Browse Feeds
Top 50 Feeds
HF Oceanic Feeds
Coverage Map
Bad Weather Areas

LiveATC FAQ
Offer LiveATC feed
Contact LiveATC.net
Press Inquiries

LiveATC on iPhone
LiveATC on Android

Windows Phone
Windows 8/10

LiveATC Mobile
(Mobile browser)

ATC Audio Archives
Interesting Recordings

LiveATC Forums


Home Page
About LiveATC.net
Make a Donation
Terms of Use
Privacy Policy

Canadian Air Freqs

AIRMETs/SIGMETs

FAA Airport Status
NAS Status
Arrival Demand


Server Software By:
Icecast.org
Liquidsoap